Terminal Aerodrome Forecast
Issued by NWS Oklahoma City, OK

Home | Current Version | Previous Version | Text Only | Print | Product List | Glossary On
Versions: 1 2 3 4 5 6 7 8 9 10 11 12 13 14
000
FTUS44 KOUN 271120
TAFOUN
TAF
KOUN 271120Z 2712/2812 15007KT P6SM SCT250
     FM271700 16014G21KT P6SM BKN100
     FM280600 17008KT P6SM SCT100=

USA.gov is the U.S. government's official web portal to all federal, state and local government web resources and services.